KD4IZ-13 Weather Reports


time (UTC)temp
F
wind
direction
speed
knots
gust
knots
rain 1hr
in
rain 24hr
in
rain mn
in
humidity
%
barometer
mb
20260505190133 80 195 4.3 7.8 0.00 0.00 0.00 41 1011.3
20260505185630 80 229 10.4 13.0 0.00 0.00 0.00 42 1011.5
20260505185126 79 225 11.3 13.9 0.00 0.00 0.00 41 1011.5
20260505184623 80 254 5.2 7.8 0.00 0.00 0.00 43 1011.6
20260505184120 80 238 4.3 7.0 0.00 0.00 0.00 41 1011.5
20260505183617 80 265 7.8 11.3 0.00 0.00 0.00 41 1011.7
20260505183114 80 245 7.0 11.3 0.00 0.00 0.00 40 1011.6
20260505182610 80 237 7.8 8.7 0.00 0.00 0.00 40 1012.0
20260505182107 79 221 12.2 17.4 0.00 0.00 0.00 40 1011.6
20260505181604 79 260 7.0 8.7 0.00 0.00 0.00 41 1011.8
20260505181101 80 228 11.3 14.8 0.00 0.00 0.00 40 1012.0
20260505180556 79 277 11.3 17.4 0.00 0.00 0.00 42 1011.9
20260505180055 79 223 7.0 7.0 0.00 0.00 0.00 43 1011.9
20260505175550 79 217 9.6 12.2 0.00 0.00 0.00 41 1012.1
20260505175047 79 334 3.5 4.3 0.00 0.00 0.00 43 1012.2
20260505174544 79 219 12.2 14.8 0.00 0.00 0.00 42 1012.0
20260505174040 78 272 3.5 6.1 0.00 0.00 0.00 44 1012.3
20260505173537 79 241 6.1 8.7 0.00 0.00 0.00 45 1012.2
20260505173033 79 195 10.4 12.2 0.00 0.00 0.00 45 1012.3
20260505172531 79 225 9.6 12.2 0.00 0.00 0.00 45 1012.2
20260505172027 79 221 7.8 9.6 0.00 0.00 0.00 46 1012.1
20260505171522 78 256 7.0 7.8 0.00 0.00 0.00 47 1012.4
20260505171020 78 225 10.4 15.6 0.00 0.00 0.00 45 1012.4
20260505170516 78 247 3.5 4.3 0.00 0.00 0.00 49 1012.5
20260505170013 78 155 7.0 7.8 0.00 0.00 0.00 48 1012.6
20260505165508 78 326 4.3 7.0 0.00 0.00 0.00 51 1012.7
20260505165004 78 217 7.8 9.6 0.00 0.00 0.00 47 1012.6
20260505164500 79 282 4.3 7.0 0.00 0.00 0.00 48 1012.8
20260505163958 78 270 8.7 18.2 0.00 0.00 0.00 47 1012.8
20260505163457 78 187 5.2 7.8 0.00 0.00 0.00 47 1013.0
20260505162956 77 264 10.4 13.9 0.00 0.00 0.00 49 1012.8
20260505162451 78 227 7.8 11.3 0.00 0.00 0.00 47 1013.1
20260505161948 78 244 5.2 7.8 0.00 0.00 0.00 47 1012.8
20260505161444 77 245 6.1 8.7 0.00 0.00 0.00 50 1012.8
20260505160942 77 198 7.8 8.7 0.00 0.00 0.00 48 1012.8
20260505160440 77 240 7.0 7.8 0.00 0.00 0.00 49 1013.1
20260505152910 77 259 4.3 6.1 0.00 0.00 0.00 51 1012.8
20260505152407 77 250 7.8 9.6 0.00 0.00 0.00 49 1013.0
20260505151902 76 243 6.1 7.0 0.00 0.00 0.00 53 1012.9
20260505151358 77 260 6.1 7.8 0.00 0.00 0.00 49 1012.7
20260505150855 76 253 9.6 12.2 0.00 0.00 0.00 49 1012.9
20260505150352 76 225 6.1 7.8 0.00 0.00 0.00 51 1013.0
20260505140311 72 196 3.5 5.2 0.00 0.00 0.00 59 1013.1
20260505130235 66 259 7.0 8.7 0.00 0.00 0.00 65 1013.9
20260505124725 65 278 3.5 5.2 0.00 0.00 0.00 67 1013.9
20260505124222 64 230 1.7 1.7 0.00 0.00 0.00 69 1013.8
20260505123717 63 257 5.2 6.1 0.00 0.00 0.00 68 1013.8
20260505123215 64 239 4.3 6.1 0.00 0.00 0.00 68 1013.9
20260505122711 63 244 4.3 4.3 0.00 0.00 0.00 69 1013.9
20260505122209 63 180 5.2 6.1 0.00 0.00 0.00 69 1013.9
20260505121705 63 236 7.8 9.6 0.00 0.00 0.00 68 1014.0
20260505121201 62 231 5.2 7.0 0.00 0.00 0.00 69 1013.9
20260505120658 62 209 5.2 7.0 0.00 0.00 0.00 70 1013.8
20260505120153 62 240 3.5 4.3 0.00 0.00 0.00 71 1013.4
20260505115647 61 244 3.5 5.2 0.00 0.00 0.00 71 1013.7
20260505115146 61 247 6.1 7.0 0.00 0.00 0.00 71 1013.7
20260505114643 60 236 6.1 7.8 0.00 0.00 0.00 72 1013.6
20260505114139 60 261 3.5 5.2 0.00 0.00 0.00 74 1013.5
20260505113635 59 258 2.6 2.6 0.00 0.00 0.00 74 1013.6
20260505113132 60 270 5.2 6.1 0.00 0.00 0.00 74 1013.4
20260505112628 60 269 4.3 6.1 0.00 0.00 0.00 74 1013.5
20260505112126 59 234 7.8 8.7 0.00 0.00 0.00 74 1013.4
20260505111620 59 238 6.1 7.0 0.00 0.00 0.00 74 1013.1
20260505111116 59 283 4.3 6.1 0.00 0.00 0.00 74 1013.1
20260505110612 59 262 3.5 4.3 0.00 0.00 0.00 75 1013.0
20260505110110 59 245 3.5 4.3 0.00 0.00 0.00 76 1012.9
20260505102045 58 230 3.5 4.3 0.00 0.00 0.00 77 1012.3
20260505101544 58 241 1.7 1.7 0.00 0.00 0.00 77 1012.5
20260505101040 59 256 5.2 7.0 0.00 0.00 0.00 76 1012.5
20260505100536 59 225 2.6 4.3 0.00 0.00 0.00 75 1012.3
20260505100033 59 254 4.3 5.2 0.00 0.00 0.00 76 1012.6
20260505095530 59 241 5.2 7.8 0.00 0.00 0.00 75 1012.5
20260505095026 59 234 4.3 5.2 0.00 0.00 0.00 75 1012.4
20260505094523 59 226 4.3 5.2 0.00 0.00 0.00 75 1012.2
20260505094019 59 261 4.3 5.2 0.00 0.00 0.00 75 1012.4
20260505093515 59 247 4.3 6.1 0.00 0.00 0.00 75 1012.2
20260505093013 59 254 2.6 2.6 0.00 0.00 0.00 75 1012.2
20260505092510 59 277 4.3 5.2 0.00 0.00 0.00 75 1012.4
20260505092009 59 265 2.6 4.3 0.00 0.00 0.00 75 1012.2
20260505091505 59 280 2.6 2.6 0.00 0.00 0.00 75 1012.2
20260505091003 59 246 2.6 2.6 0.00 0.00 0.00 74 1012.2
20260505090501 60 240 3.5 4.3 0.00 0.00 0.00 74 1012.0
20260505085958 60 219 4.3 5.2 0.00 0.00 0.00 74 1012.1
20260505085456 60 261 2.6 2.6 0.00 0.00 0.00 74 1012.0
20260505084954 60 297 0.9 1.7 0.00 0.00 0.00 73 1012.2
20260505084452 60 223 0.9 1.7 0.00 0.00 0.00 72 1012.1
20260505083949 61 243 2.6 2.6 0.00 0.00 0.00 72 1012.2
20260505083447 61 265 1.7 1.7 0.00 0.00 0.00 72 1012.2
20260505082943 61 256 1.7 1.7 0.00 0.00 0.00 71 1012.2
20260505082439 61 227 2.6 2.6 0.00 0.00 0.00 72 1012.1
20260505081936 61 45 0.9 0.9 0.00 0.00 0.00 71 1012.3
20260505081433 61 193 3.5 5.2 0.00 0.00 0.00 71 1012.0
20260505080929 61 300 1.7 1.7 0.00 0.00 0.00 72 1012.1
20260505080425 61 321 1.7 1.7 0.00 0.00 0.00 71 1012.0
20260505075921 61 173 1.7 1.7 0.00 0.00 0.00 73 1012.0
20260505075418 60 243 2.6 2.6 0.00 0.00 0.00 73 1012.0
20260505074915 61 233 1.7 1.7 0.00 0.00 0.00 73 1012.0
20260505074412 61 149 0.9 1.7 0.00 0.00 0.00 72 1012.1
20260505073909 61 221 4.3 5.2 0.00 0.00 0.00 71 1011.7
20260505073407 61 216 2.6 2.6 0.00 0.00 0.00 72 1011.8
20260505072904 61 206 5.2 6.1 0.00 0.00 0.00 72 1011.7
20260505072400 61 255 3.5 4.3 0.00 0.00 0.00 72 1011.7
20260505071856 61 251 3.5 4.3 0.00 0.00 0.00 72 1011.8
20260505071353 61 228 1.7 1.7 0.00 0.00 0.00 72 1011.8
20260505070851 60 278 1.7 1.7 0.00 0.00 0.00 72 1011.6
20260505070347 61 230 1.7 1.7 0.00 0.00 0.00 72 1011.9
20260505065842 60 263 1.7 1.7 0.00 0.00 0.00 73 1012.1
20260505065340 61 115 0.0 0.9 0.00 0.00 0.00 73 1012.0
20260505064837 61 112 0.9 0.9 0.00 0.00 0.00 72 1011.8
20260505064334 61 111 0.0 0.0 0.00 0.00 0.00 72 1012.1
20260505063832 61 260 1.7 1.7 0.00 0.00 0.00 71 1012.0
20260505063327 61 109 0.0 0.9 0.00 0.00 0.00 71 1011.9
20260505062824 62 174 0.9 1.7 0.00 0.00 0.00 70 1012.2
20260505062322 62 144 0.9 1.7 0.00 0.00 0.00 71 1012.0
20260505061818 62 247 2.6 2.6 0.00 0.00 0.00 70 1011.9
20260505061317 63 255 2.6 2.6 0.00 0.00 0.00 69 1011.9
20260505060814 63 284 1.7 1.7 0.00 0.00 0.00 69 1011.8
20260505060311 63 255 2.6 2.6 0.00 0.00 0.00 69 1012.0
20260505055806 63 228 1.7 1.7 0.00 0.00 0.00 69 1012.1
20260505055303 63 258 2.6 4.3 0.00 0.00 0.00 68 1012.2
20260505054800 63 271 2.6 4.3 0.00 0.00 0.00 68 1012.0
20260505054257 63 216 4.3 5.2 0.00 0.00 0.00 68 1012.1
20260505053755 63 248 3.5 5.2 0.00 0.00 0.00 68 1012.1
20260505053252 63 218 3.5 4.3 0.00 0.00 0.00 68 1011.8
20260505052749 63 237 2.6 2.6 0.00 0.00 0.00 67 1012.0
20260505052246 63 261 3.5 4.3 0.00 0.00 0.00 67 1012.2
20260505051743 63 249 2.6 4.3 0.00 0.00 0.00 68 1012.1
20260505051241 63 254 4.3 5.2 0.00 0.00 0.00 67 1011.9
20260505050738 63 221 2.6 2.6 0.00 0.00 0.00 67 1012.1
20260505050237 63 221 4.3 6.1 0.00 0.00 0.00 66 1012.2
20260505041706 63 275 2.6 2.6 0.00 0.00 0.00 65 1011.9
20260505041204 62 265 3.5 4.3 0.00 0.00 0.00 65 1011.9
20260505040701 62 235 2.6 2.6 0.00 0.00 0.00 66 1011.9
20260505040158 63 202 2.6 2.6 0.00 0.00 0.00 65 1011.9
20260505035655 63 235 3.5 5.2 0.00 0.00 0.00 64 1011.7
20260505035151 62 246 3.5 4.3 0.00 0.00 0.00 64 1011.7
20260505034647 62 254 3.5 4.3 0.00 0.00 0.00 64 1011.6
20260505034145 62 262 2.6 2.6 0.00 0.00 0.00 64 1011.9
20260505033641 62 267 3.5 6.1 0.00 0.00 0.00 63 1011.8
20260505033139 62 251 3.5 4.3 0.00 0.00 0.00 63 1011.7
20260505032637 63 275 2.6 4.3 0.00 0.00 0.00 63 1011.8
20260505032133 63 271 2.6 2.6 0.00 0.00 0.00 62 1011.7
20260505031630 63 237 4.3 5.2 0.00 0.00 0.00 62 1011.7
20260505031126 63 265 1.7 1.7 0.00 0.00 0.00 62 1011.8
20260505030624 63 240 1.7 2.6 0.00 0.00 0.00 61 1011.7
20260505030119 63 185 0.9 1.7 0.00 0.00 0.00 62 1011.9
20260505025615 63 226 1.7 1.7 0.00 0.00 0.00 61 1011.9
20260505025114 63 209 1.7 1.7 0.00 0.00 0.00 61 1012.0
20260505024611 63 223 0.9 0.9 0.00 0.00 0.00 61 1011.8
20260505024109 63 257 1.7 1.7 0.00 0.00 0.00 61 1011.8
20260505023606 64 264 1.7 1.7 0.00 0.00 0.00 60 1011.9
20260505023103 64 244 1.7 2.6 0.00 0.00 0.00 60 1012.1
20260505022600 64 188 3.5 4.3 0.00 0.00 0.00 59 1011.9
20260505022057 64 254 2.6 2.6 0.00 0.00 0.00 59 1012.0
20260505021554 64 187 2.6 4.3 0.00 0.00 0.00 58 1012.1
20260505021051 64 213 2.6 2.6 0.00 0.00 0.00 59 1011.9
20260505020550 64 262 2.6 2.6 0.00 0.00 0.00 59 1011.9
20260505020048 64 260 1.7 1.7 0.00 0.00 0.00 59 1012.1
20260505015545 64 211 2.6 2.6 0.00 0.00 0.00 59 1012.0
20260505015041 64 160 0.9 0.9 0.00 0.00 0.00 59 1012.0
20260505014538 64 175 1.7 1.7 0.00 0.00 0.00 59 1011.8
20260505014036 65 176 1.7 1.7 0.00 0.00 0.00 58 1012.1
20260505013532 64 213 0.9 0.9 0.00 0.00 0.00 59 1012.1
20260505013030 65 127 0.9 0.9 0.00 0.00 0.00 58 1011.8
20260505012528 65 106 0.0 0.0 0.00 0.00 0.00 58 1011.6
20260505012025 65 158 2.6 2.6 0.00 0.00 0.00 57 1011.7
20260505011520 66 280 1.7 2.6 0.00 0.00 0.00 57 1011.7
20260505011018 66 119 2.6 2.6 0.00 0.00 0.00 57 1011.5
20260505010513 66 247 1.7 2.6 0.00 0.00 0.00 57 1011.4
20260505010010 65 85 0.0 0.9 0.00 0.00 0.00 57 1011.3
20260505005506 65 10 0.9 1.7 0.00 0.00 0.00 58 1011.2
20260505005004 65 239 2.6 2.6 0.00 0.00 0.00 58 1011.4
20260505004501 65 190 1.7 1.7 0.00 0.00 0.00 57 1011.4
20260505003958 65 257 1.7 1.7 0.00 0.00 0.00 58 1011.3
20260505003455 66 74 0.0 0.9 0.00 0.00 0.00 57 1011.3
20260505002950 66 170 3.5 4.3 0.00 0.00 0.00 56 1011.7
20260505002447 66 72 0.9 0.9 0.00 0.00 0.00 56 1011.3
20260505001945 66 203 2.6 2.6 0.00 0.00 0.00 55 1011.3
20260505001442 67 99 0.0 0.9 0.00 0.00 0.00 54 1011.3
20260505000939 67 224 2.6 2.6 0.00 0.00 0.00 53 1011.3
20260505000437 68 120 1.7 2.6 0.00 0.00 0.00 52 1011.3
20260504235934 69 51 0.9 0.9 0.00 0.00 0.00 51 1011.2
20260504235431 69 45 0.0 0.9 0.00 0.00 0.00 49 1011.3
20260504234927 70 303 1.7 2.6 0.00 0.00 0.00 47 1011.2
20260504234425 70 192 0.9 1.7 0.00 0.00 0.00 46 1010.9
20260504233921 71 182 5.2 6.1 0.00 0.00 0.00 46 1010.9
20260504233417 71 219 4.3 6.1 0.00 0.00 0.00 46 1011.1
20260504232914 71 189 2.6 2.6 0.00 0.00 0.00 46 1010.8
20260504232411 71 288 2.6 4.3 0.00 0.00 0.00 45 1011.0
20260504231908 72 187 2.6 2.6 0.00 0.00 0.00 45 1011.1
20260504231404 72 203 3.5 4.3 0.00 0.00 0.00 45 1011.0
20260504230901 72 149 4.3 5.2 0.00 0.00 0.00 45 1011.1
20260504230358 72 226 1.7 1.7 0.00 0.00 0.00 45 1011.3
20260504225857 72 128 0.9 1.7 0.00 0.00 0.00 45 1011.0
20260504225353 71 55 0.9 0.9 0.00 0.00 0.00 46 1011.2
20260504224851 72 126 3.5 4.3 0.00 0.00 0.00 45 1011.2
20260504224347 72 159 2.6 2.6 0.00 0.00 0.00 45 1011.4
20260504223844 72 190 6.1 8.7 0.00 0.00 0.00 44 1011.4
20260504223339 72 196 4.3 5.2 0.00 0.00 0.00 45 1011.4
20260504222836 72 292 2.6 4.3 0.00 0.00 0.00 45 1011.2
20260504222333 72 214 3.5 5.2 0.00 0.00 0.00 45 1011.0
20260504221832 72 226 3.5 4.3 0.00 0.00 0.00 45 1011.1
20260504221328 72 271 4.3 7.0 0.00 0.00 0.00 44 1011.2
20260504220825 73 165 4.3 5.2 0.00 0.00 0.00 44 1011.2
20260504220322 73 263 3.5 5.2 0.00 0.00 0.00 43 1011.2
20260504215819 74 245 7.0 8.7 0.00 0.00 0.00 44 1011.1
20260504215315 73 203 5.2 6.1 0.00 0.00 0.00 43 1011.1
20260504214811 73 242 4.3 6.1 0.00 0.00 0.00 45 1010.9
20260504214309 73 261 5.2 6.1 0.00 0.00 0.00 43 1011.1
20260504213805 73 292 2.6 5.2 0.00 0.00 0.00 44 1011.1
20260504213301 73 195 7.8 11.3 0.00 0.00 0.00 43 1011.3
20260504212758 73 256 7.0 7.8 0.00 0.00 0.00 44 1011.0
20260504212254 73 186 6.1 7.0 0.00 0.00 0.00 43 1011.1
20260504211752 73 222 3.5 5.2 0.00 0.00 0.00 44 1011.1
20260504211248 73 208 8.7 12.2 0.00 0.00 0.00 43 1011.2
20260504210746 73 246 9.6 11.3 0.00 0.00 0.00 43 1011.3
20260504210243 73 237 3.5 5.2 0.00 0.00 0.00 43 1011.3
20260504205739 73 209 7.8 11.3 0.00 0.00 0.00 43 1011.2
20260504205238 73 217 4.3 6.1 0.00 0.00 0.00 45 1011.1
20260504204736 73 209 8.7 11.3 0.00 0.00 0.00 47 1011.1
20260504204234 72 227 3.5 4.3 0.00 0.00 0.00 45 1011.3
20260504203733 73 234 7.0 7.8 0.00 0.00 0.00 44 1011.1
20260504203230 73 211 8.7 13.0 0.00 0.00 0.00 45 1011.2
20260504202729 72 254 6.1 7.0 0.00 0.00 0.00 44 1011.4
20260504202227 72 216 7.0 7.8 0.00 0.00 0.00 44 1011.6
20260504201724 73 257 7.0 9.6 0.00 0.00 0.00 45 1011.6
20260504201221 72 256 6.1 7.0 0.00 0.00 0.00 44 1011.4
20260504200719 72 201 4.3 6.1 0.00 0.00 0.00 44 1011.4
20260504200214 71 252 4.3 6.1 0.00 0.00 0.00 47 1011.7
20260504195711 72 262 6.1 8.7 0.00 0.00 0.00 48 1011.7
20260504195207 72 263 8.7 11.3 0.00 0.00 0.00 43 1011.9
20260504194704 71 283 4.3 5.2 0.00 0.00 0.00 43 1011.9
20260504194200 72 255 5.2 7.8 0.00 0.00 0.00 45 1012.1
20260504193657 72 217 7.8 9.6 0.00 0.00 0.00 45 1012.2
20260504193155 71 209 7.0 7.8 0.00 0.00 0.00 44 1012.3
20260504192652 71 271 5.2 7.0 0.00 0.00 0.00 45 1012.4
20260504192150 71 243 6.1 9.6 0.00 0.00 0.00 44 1012.5
20260504191648 71 267 4.3 5.2 0.00 0.00 0.00 44 1012.4
20260504191139 70 249 8.7 9.6 0.00 0.00 0.00 45 1012.5
20260504190635 71 230 7.8 9.6 0.00 0.00 0.00 47 1012.5